Probability
0 0 0 0 0 0 0 0 0 0 0 0 0 0 0 0 0 0 0 0 0 0 0 0 0 0 0 0 0 0 0 0 0 0 0 0 0 0 0 0 0 0 0 0 0 0 0 0 0
0 0 0 0 0 0 0 0 0 0 0 0 0 0 0 0 0 0 0 0 0 0 0 0 0 0 0 0 0 0 0 0 0 0 0 0 0 0 0 0 0 0 0 0 0 0 0 0 0
0 0 0 0 0 0 0 0 0 0 0 0 0 0 0 0 0 0 0 0 0 0 0 0 0 0 0 0 0 0 0 0 0 0 0 0 0 0 0 0 0 0 0 0 0 1 1 0 0
1 0 0 0 0 0 0 0 0 0 0 0 0 0 0 0 0 0 0 0 0 0 0 0 0 0 0 0 0 0 0 0 0 0 0 0 0 0 0 0 0 0 0 0 0 1 1 1 1
2 1 0 0 0 0 0 0 0 0 0 0 0 0 0 0 0 0 0 0 0 0 0 0 0 0 0 0 0 0 0 0 0 0 0 0 0 0 0 0 0 0 0 0 0 0 2 3 2
2 1 0 0 0 0 0 0 0 0 0 0 0 0 0 0 0 0 0 0 0 0 0 0 0 0 0 0 0 0 0 0 0 0 0 0 0 0 0 0 0 0 0 0 0 0 2 2 2
3 1 0 0 0 0 0 0 0 0 0 0 0 0 0 0 0 0 0 0 0 0 0 0 0 0 0 0 0 0 0 0 0 0 0 0 0 0 0 0 0 0 0 0 0 0 1 1 1
3 1 0 0 0 0 0 0 0 0 0 0 0 0 0 0 1 1 0 0 0 0 0 0 0 0 0 0 0 0 0 0 0 0 0 0 0 0 0 0 0 0 0 0 0 0 0 0 0
2 1 0 0 0 0 0 0 0 0 0 0 0 0 0 1 2 2 1 0 0 0 0 0 0 0 0 0 0 0 0 0 0 0 0 0 0 0 0 0 0 0 0 0 0 0 0 0 0
1 0 0 0 0 0 0 0 0 0 0 0 0 0 1 2 3 2 1 0 0 0 0 0 0 0 0 0 0 0 0 0 0 0 0 0 0 0 0 0 0 0 0 0 0 0 0 0 0
1 0 0 0 0 0 0 0 0 0 0 0 0 0 1 3 3 2 1 0 0 0 0 0 0 0 0 0 0 0 0 0 0 0 0 0 0 0 0 0 0 0 0 0 0 0 0 0 0
0 0 0 0 0 0 0 0 0 0 0 0 0 1 2 3 3 1 0 0 0 0 0 0 0 0 0 0 0 0 0 0 0 0 0 0 0 0 0 0 0 0 0 0 0 0 0 0 0
0 0 0 0 0 0 0 0 0 0 0 0 0 1 2 3 2 1 0 0 0 0 0 0 0 0 0 0 0 0 0 0 0 0 0 0 0 0 0 0 0 0 0 0 0 0 0 0 0
0 0 0 0 0 0 0 0 0 0 0 0 0 0 1 2 1 0 0 0 0 0 0 0 0 0 0 0 0 0 0 0 0 0 0 0 0 0 0 0 0 0 0 0 0 0 0 0 0
0 0 0 0 0 0 0 0 0 0 0 0 0 0 0 0 0 0 0 0 0 0 0 0 0 0 0 0 0 0 0 0 0 0 0 0 0 0 0 0 0 0 0 0 0 0 0 0 0
0 0 0 0 0 0 0 0 0 0 0 0 0 0 0 0 0 0 0 0 0 0 0 0 0 0 0 0 0 0 0 0 0 0 0 0 0 0 0 0 0 0 0 0 0 0 0 0 0
0 0 0 0 0 0 0 0 0 0 0 0 0 0 0 0 0 0 0 0 0 0 0 0 0 0 0 0 0 0 0 0 0 0 0 0 0 0 0 0 0 0 0 0 0 0 0 0 0
0 0 0 0 0 0 0 0 0 0 0 0 0 0 0 0 0 0 0 0 0 0 0 0 0 0 0 0 0 0 0 0 0 0 0 0 0 0 0 0 0 0 0 0 0 0 0 0 0
0 0 0 0 0 0 0 0 0 0 0 0 0 0 0 0 0 0 0 0 0 0 0 0 0 0 0 0 0 0 0 0 0 0 0 0 0 0 0 0 0 0 0 0 0 0 0 0 0
0 0 0 0 0 0 0 0 0 0 0 0 0 0 0 0 0 0 0 0 0 0 0 0 0 0 0 0 0 0 0 0 0 0 0 0 0 0 0 0 0 0 0 0 0 0 0 0 0
0 0 0 0 0 0 0 0 0 0 0 0 0 0 0 0 0 0 0 0 0 0 1 0 0 0 0 0 0 0 0 0 0 0 0 0 0 0 0 0 0 0 0 0 0 0 0 0 0
0 0 0 0 0 0 0 0 0 0 0 0 0 0 0 0 0 0 0 0 0 0 0 0 0 0 0 0 0 0 0 0 0 0 0 0 0 0 0 0 0 0 0 0 0 0 0 0 0
0 0 0 0 0 0 0 0 0 0 0 0 0 0 0 0 0 0 0 0 0 0 0 0 0 0 0 0 0 0 0 0 0 0 0 0 0 0 0 0 0 0 0 0 0 0 0 0 0
0 0 0 0 0 0 0 0 0 0 0 0 0 0 0 0 0 0 0 0 0 0 0 0 0 0 0 0 0 0 0 0 0 0 0 0 0 0 0 0 0 0 0 0 0 0 0 0 0
0 0 0 0 0 0 0 0 0 0 0 0 0 0 0 0 0 0 0 0 0 0 0 0 0 0 0 0 0 0 0 0 0 0 0 0 0 0 0 0 0 0 0 0 0 0 0 0 0
0 0 0 0 0 0 0 0 0 0 0 0 0 0 0 0 0 0 0 0 0 0 0 0 0 0 0 0 0 0 0 0 0 0 0 0 0 0 0 0 0 0 0 0 0 0 0 0 0
0 0 0 0 0 0 0 0 0 0 0 0 0 0 0 0 0 0 0 0 0 0 0 0 0 0 0 0 0 0 0 0 0 0 0 0 0 0 0 0 0 0 0 0 0 0 0 0 0
0 0 0 0 0 0 0 0 0 0 0 0 0 0 0 0 0 0 0 0 0 0 0 0 0 0 0 0 0 0 0 0 0 0 0 0 0 0 0 0 0 0 0 0 0 0 0 0 0
0 0 0 0 0 0 0 0 0 0 0 0 0 0 0 0 0 0 0 0 0 0 0 0 0 0 0 0 0 0 0 0 0 0 0 0 0 0 0 0 0 0 0 0 0 0 0 0 0
0 0 0 0 0 0 0 0 0 0 0 0 0 0 0 0 0 0 0 0 0 0 0 0 0 0 0 0 0 0 0 0 0 0 0 0 0 0 0 0 0 0 0 0 0 0 0 0 0
Wind_Speed
3 3 2 3 4 2 1 3 2 2 2 4 3 3 5 5 6 6 6 6 8 9 9 10 8 7 7 7 7 6 6 6 5 5 4 4 3 3 2 2 2 1 1 1 1 1 2 2 2
3 2 3 3 3 1 3 3 2 3 3 3 2 3 4 6 6 7 7 7 9 9 8 8 9 7 7 7 7 6 6 6 5 4 4 4 3 3 3 2 2 3 3 3 3 2 2 3 3
4 3 3 3 2 1 3 3 3 3 2 1 2 3 4 5 6 6 8 10 9 8 8 9 7 7 7 7 6 6 6 5 5 4 4 4 4 3 3 4 4 4 4 4 4 4 3 3 3
3 3 3 3 0 2 2 2 2 3 3 1 2 5 6 5 4 8 11 10 10 9 8 9 7 7 7 6 6 6 6 5 5 5 4 4 4 4 4 4 5 5 5 5 5 5 5 5 4
3 3 4 3 1 2 1 1 2 2 3 3 3 6 7 5 7 11 11 10 9 8 7 9 7 7 6 6 6 6 6 5 5 4 4 4 5 5 5 5 5 5 5 5 5 6 6 6 5
3 3 4 2 2 2 2 1 2 2 3 3 3 6 7 7 9 10 10 9 8 8 7 8 8 6 6 6 5 5 5 5 4 4 4 4 5 5 5 5 5 5 5 5 5 5 6 5 5
3 3 3 1 1 2 3 1 2 2 3 3 2 5 7 8 9 10 9 8 8 7 6 6 7 8 6 5 4 4 4 4 4 5 5 5 5 5 5 6 6 6 5 5 5 5 5 5 6
3 3 3 2 1 2 3 2 1 1 2 3 2 3 7 10 10 10 9 8 7 6 5 4 4 4 4 5 5 3 3 4 4 4 5 4 2 1 2 4 4 6 6 6 6 5 5 5 5
3 4 3 1 0 3 2 3 3 1 4 4 2 4 7 13 12 10 9 8 7 6 5 5 4 3 2 1 4 1 2 2 1 1 2 4 4 3 2 5 6 6 6 5 5 5 5 6 5
4 4 1 1 1 1 2 1 2 4 5 5 5 6 9 12 12 11 10 9 8 7 6 4 4 3 2 0 0 1 1 1 3 4 4 3 4 4 5 1 1 3 4 5 3 4 6 7 5
4 3 1 1 0 0 1 1 2 3 3 4 5 9 12 13 12 10 9 7 6 6 5 4 4 3 1 1 1 1 1 1 2 3 3 3 3 3 3 3 1 2 4 4 2 5 4 4 3
4 3 2 1 1 1 1 1 2 3 1 3 4 9 12 13 12 10 8 7 6 5 5 4 4 3 2 1 1 1 1 2 2 2 4 4 3 4 4 3 4 4 3 4 5 4 4 5 5
6 3 3 2 2 2 3 3 2 3 2 3 5 8 11 12 11 9 8 6 6 5 5 5 4 2 1 0 1 2 1 2 2 2 3 4 4 4 4 3 3 4 4 4 4 5 4 5 5
4 3 2 2 3 2 3 3 3 2 4 6 7 9 10 11 11 9 9 8 7 7 6 5 5 3 2 2 2 1 1 0 2 2 3 5 4 4 4 5 4 4 4 4 5 5 4 4 4
4 5 4 3 3 2 4 4 4 2 4 6 8 8 9 10 10 10 9 8 7 7 6 6 5 4 3 1 1 1 1 1 1 2 3 4 4 5 5 5 5 5 5 5 5 5 5 4 4
6 6 5 4 3 3 5 2 4 3 5 6 7 8 8 9 10 10 9 8 7 7 6 6 5 4 3 2 1 0 1 1 1 2 3 5 5 6 5 5 5 5 5 4 4 4 4 4 3
7 7 6 5 4 4 4 1 4 3 4 5 6 7 8 9 10 9 9 9 7 7 7 7 7 5 4 3 2 1 1 1 1 2 3 4 6 6 5 4 5 6 5 4 5 4 4 4 3
8 7 6 5 5 5 4 2 1 2 4 5 5 6 7 8 8 8 7 7 7 7 7 7 7 6 5 3 2 1 1 1 1 1 2 4 5 6 5 4 5 6 4 4 4 4 3 3 3
4 6 6 5 4 4 3 1 1 2 2 3 4 5 6 6 6 6 6 7 8 8 8 8 8 8 6 4 2 2 1 1 1 1 2 3 4 5 5 5 5 5 5 5 5 4 4 2 2
5 6 7 6 3 2 2 2 4 4 2 1 0 2 3 4 5 6 7 8 9 9 10 10 9 8 7 3 2 1 1 2 1 1 1 2 3 4 4 5 5 5 4 5 5 4 4 2 1
5 5 6 6 5 3 3 7 7 6 6 5 3 2 1 1 3 4 6 7 8 9 10 8 8 8 7 6 3 2 1 2 2 2 1 2 3 3 4 5 6 5 5 4 5 5 4 3 2
5 3 4 5 7 5 2 8 8 6 8 8 7 5 4 2 0 1 3 5 7 8 8 8 8 8 7 7 5 4 2 2 2 2 1 2 2 3 3 5 5 5 4 5 5 4 4 4 2
5 3 3 4 5 7 3 6 8 6 8 8 8 7 6 4 2 1 1 2 4 5 6 7 7 7 7 6 5 5 4 3 2 2 2 3 1 2 3 4 4 4 4 5 5 4 4 3 3
6 6 5 4 5 6 3 4 7 5 6 6 7 8 7 6 4 3 2 1 3 4 5 6 7 7 7 7 7 6 5 4 3 3 3 3 1 2 2 3 3 4 4 4 4 4 4 3 3
6 6 6 6 5 6 3 2 7 6 5 6 7 8 8 7 6 5 4 2 2 3 5 6 8 8 8 8 7 7 6 5 5 4 2 3 2 2 1 2 3 3 3 4 4 3 4 3 3
4 5 3 4 6 7 4 5 7 6 5 5 6 8 9 9 8 7 6 3 2 2 4 5 7 7 7 7 7 6 6 4 3 3 3 3 3 2 2 2 3 3 3 3 3 3 3 3 3
4 2 3 2 5 6 7 7 8 6 6 7 8 10 11 10 9 8 7 5 3 1 2 4 5 6 6 7 6 6 6 6 5 5 4 3 3 2 3 3 3 2 2 3 3 2 2 2 2
3 2 3 4 6 6 7 7 6 5 5 6 8 10 10 10 9 9 8 6 4 2 1 2 4 4 5 5 5 5 6 6 5 5 5 5 4 3 4 4 4 2 2 2 2 3 2 2 1
4 3 2 1 1 3 6 5 5 3 4 5 7 8 8 9 9 9 7 7 6 4 2 1 2 3 3 4 5 6 5 6 6 6 5 5 5 5 5 4 5 4 3 3 2 3 2 3 2
1 0 3 3 3 1 2 6 5 4 4 5 6 7 7 8 8 8 8 8 7 6 4 2 1 1 2 4 4 6 5 6 7 6 6 7 6 6 5 5 5 4 4 4 3 3 3 3 3
Wind_Direction
192 194 234 244 241 235 87 82 76 91 71 55 43 47 50 35 16 56 100 123 124 128 125 129 122 119 115 111 106 98 93 88 83 79 76 76 71 61 53 32 6 355 349 337 343 357 341 334 340
186 203 237 244 262 224 86 82 90 68 84 105 82 67 71 70 60 96 121 126 128 124 122 113 115 114 109 105 100 94 85 77 72 67 58 51 44 33 17 2 353 344 333 324 324 324 319 314 317
167 231 256 250 268 11 73 72 71 88 114 143 97 65 52 71 96 107 119 133 130 124 118 110 117 111 106 101 95 88 79 71 64 55 47 41 30 18 5 355 345 336 329 323 319 316 310 304 304
191 211 232 250 201 43 28 72 113 139 139 114 113 97 81 70 94 113 130 136 131 126 120 112 116 108 102 94 86 76 70 64 58 52 41 32 18 2 352 344 340 334 324 319 316 316 309 300 300
219 238 231 225 133 86 47 55 164 158 128 107 109 98 93 85 106 124 134 135 131 126 121 117 115 108 102 94 85 75 68 60 53 44 34 25 13 1 351 344 337 331 325 316 313 309 305 300 295
210 231 240 225 108 98 106 127 193 177 137 126 118 110 98 117 132 135 135 134 129 125 125 120 121 108 99 93 86 78 69 59 48 37 27 18 9 0 353 348 337 327 321 318 313 303 296 295 294
233 227 241 241 146 121 92 126 191 184 150 125 121 111 118 140 139 139 136 134 130 132 132 126 130 133 124 99 81 76 59 46 38 25 11 7 1 354 347 338 336 326 318 315 314 306 295 287 284
265 246 220 214 210 97 88 149 146 216 112 108 135 113 132 147 147 145 143 146 144 147 145 135 127 117 122 126 108 71 49 38 30 23 17 0 299 261 304 294 347 329 319 316 315 309 302 288 277
234 230 215 176 88 87 113 158 127 134 137 132 107 72 110 141 152 156 158 163 164 166 167 161 158 143 131 91 104 141 121 64 295 147 86 289 314 345 288 20 1 335 330 325 320 315 309 290 251
219 228 189 70 27 66 129 157 146 167 156 145 134 122 131 149 163 172 174 173 174 177 179 177 182 168 178 150 134 282 294 32 331 354 355 343 355 346 330 82 306 322 316 288 287 293 268 257 247
211 223 155 149 88 357 162 156 187 200 172 159 152 149 154 165 176 182 184 177 174 174 175 188 197 188 214 220 300 330 329 339 323 351 343 332 335 326 325 325 272 282 281 290 276 263 275 278 276
201 189 188 152 138 234 228 184 197 225 154 123 139 151 163 175 182 187 188 186 184 189 185 189 197 197 218 286 312 289 310 329 344 352 341 341 344 329 344 323 335 321 315 315 298 289 283 280 267
203 173 179 201 209 244 256 252 264 233 203 180 157 164 176 183 186 192 196 193 197 197 198 193 203 215 205 249 285 283 327 329 2 353 334 343 335 338 336 324 330 318 322 308 297 288 290 286 276
193 193 196 219 224 226 246 249 234 200 171 173 173 178 185 188 191 192 199 203 205 203 201 185 200 201 215 221 253 327 337 335 331 357 347 340 340 337 331 326 329 328 322 320 302 296 291 277 275
179 192 195 207 217 214 246 230 207 176 182 182 183 183 186 193 196 203 202 206 210 204 196 186 197 196 210 245 331 336 314 337 350 1 336 338 342 333 334 331 334 336 327 315 304 302 290 276 267
186 197 191 164 194 191 235 187 123 160 189 191 189 183 191 199 207 209 211 212 212 206 198 178 187 190 182 178 208 220 318 348 340 347 340 339 343 341 341 337 340 336 326 320 313 301 294 282 276
189 193 183 157 181 191 222 202 127 169 211 211 203 199 198 201 210 211 214 215 212 209 203 185 183 182 173 166 179 215 269 305 321 337 347 344 349 346 351 347 339 337 332 330 322 330 310 297 289
175 180 174 163 155 198 214 236 169 192 223 226 211 211 206 209 205 205 210 210 204 205 203 189 175 182 164 169 188 189 241 266 298 329 354 351 344 351 350 340 349 346 337 337 334 328 311 302 291
173 175 154 130 133 194 201 262 43 94 172 201 195 201 209 212 200 193 197 197 196 197 198 191 184 177 172 175 205 227 242 255 254 314 348 333 341 347 353 341 354 344 343 339 338 329 314 310 311
183 164 143 126 128 193 140 103 80 73 77 68 192 184 197 199 191 189 198 197 198 195 197 195 190 182 182 183 197 225 298 289 316 274 260 306 331 343 343 346 342 350 339 344 344 338 324 332 331
164 154 138 131 143 163 159 114 94 86 87 78 58 42 90 195 199 188 195 197 198 198 201 198 190 184 183 175 176 190 206 236 221 233 258 301 317 330 335 344 342 344 341 353 343 340 338 328 327
131 105 143 160 174 130 172 119 91 85 87 70 58 49 47 55 145 190 195 193 202 201 200 200 189 190 183 181 198 219 248 279 303 300 292 268 278 307 321 335 337 339 346 347 348 359 335 326 333
90 116 142 159 157 139 133 128 104 92 77 57 46 40 37 39 41 54 204 201 196 191 192 197 188 188 185 197 197 222 237 264 275 271 273 280 288 294 304 323 329 337 343 351 350 350 345 339 340
137 145 136 166 184 133 78 128 108 74 47 42 44 42 38 37 46 53 67 135 165 177 182 188 187 190 189 200 208 221 235 242 252 257 277 275 274 276 284 302 317 329 343 347 345 345 351 346 346
203 191 166 168 168 120 98 127 95 67 40 29 33 41 43 41 44 48 52 71 129 170 182 187 190 193 195 205 216 219 231 245 252 264 263 279 290 290 311 293 306 328 340 342 337 340 349 356 350
192 242 223 170 152 135 161 131 100 73 61 55 55 51 48 44 41 40 39 40 73 159 183 196 198 201 201 210 219 224 226 240 252 255 269 272 289 309 313 289 299 313 321 325 332 326 355 357 358
173 171 346 119 135 149 136 125 119 105 83 63 57 51 45 42 40 41 42 39 43 96 178 201 204 208 207 213 218 221 229 234 240 244 254 266 271 283 278 273 277 291 307 315 316 324 344 350 349
0 118 206 203 171 155 149 158 144 122 72 62 54 48 43 41 40 39 40 40 41 51 110 191 211 218 214 217 219 222 229 229 237 247 249 261 268 266 269 260 261 252 256 266 289 301 328 311 354
157 165 145 128 254 198 165 136 77 90 73 67 61 51 45 42 38 37 37 39 43 49 57 116 203 225 226 226 224 228 229 233 231 239 244 254 260 250 247 258 265 263 257 252 241 277 283 285 279
303 219 234 218 150 252 184 113 88 98 92 82 73 62 54 49 46 44 42 41 42 38 36 19 335 245 244 244 236 237 236 234 238 237 242 247 254 257 257 254 257 257 257 263 266 261 259 270 282